Location: Montreal
(45.5000°N, 73.5833°W)
Time: 00:21:12
(UTC-04:00)

Tiangong 2 - Pass Details

Date: 13 October 2017
Orbit: 388 x 391 km, 42.8° (Epoch: 21 October)

Event Time Altitude Azimuth Distance (km) Brightness Sun altitude
Exits shadow 04:21:12 10° 101° (E) 1,414 4.6 -29.6°
Drops below altitude 10° 04:21:15 10° 100° (E) 1,434 4.6 -29.6°
Sets 04:23:30 0° 88° (E) 2,279 6.0 -29.3°
